Location: Unspecified
(44.4377°N, 88.0525°W)
Time: 23:23:03
(UTC-05:00)

Okean 3 - Visible Passes

Search period start: 29 May 2015 00:00
Search period end: 08 June 2015 00:00
Orbit: 581 x 605 km, 82.5° (Epoch: 29 May)

Date Brightness Start Highest point End Pass type
(mag) Time Alt. Az. Time Alt. Az. Time Alt. Az.
29 May 6.2 03:30:33 10° NNE 03:33:40 20° ENE 03:36:50 10° ESE visible
30 May 5.5 03:39:16 10° NNE 03:42:59 28° ENE 03:46:41 10° SE visible
31 May 4.8 03:48:11 10° N 03:52:15 42° ENE 03:56:17 10° SSE visible
01 Jun 3.9 03:57:12 10° N 04:01:28 65° E 04:05:39 10° SSE visible
02 Jun 3.4 04:06:20 10° N 04:10:37 82° W 04:14:50 10° S visible
03 Jun 6.3 02:39:38 10° NNE 02:41:58 15° ENE 02:44:26 10° ESE visible
03 Jun 3.7 04:15:35 10° NNW 04:19:44 52° W 04:23:49 10° S visible
04 Jun 5.9 02:48:06 10° NNE 02:51:20 21° ENE 02:54:37 10° ESE visible
04 Jun 4.2 04:24:57 10° NNW 04:28:48 34° W 04:32:36 10° SSW visible
05 Jun 5.2 02:56:51 10° N 03:00:38 31° ENE 03:04:24 10° SE visible
06 Jun 4.4 03:05:46 10° N 03:09:53 46° ENE 03:13:57 10° SSE visible
07 Jun 3.6 03:14:49 10° N 03:19:04 72° E 03:23:04 11° SSE visible
